Regional Weather Roundup
Issued by NWS

Home | Current Version | Previous Version | Graphics & Text | Print | Product List | Glossary On
Versions: 1 2 3 4 5 6 7 8 9 10 11 12 13 14 15 16 17 18 19 20 21 22 23 24 25 26 27 28 29 30 31 32 33 34 35 36 37 38 39 40 41 42 43 44 45 46 47 48 49 50
000
ASUS43 KDTX 191710
RWRMI
MICHIGAN HOURLY REGIONAL WEATHER ROUNDUP
NATIONAL WEATHER SERVICE DETROIT/PONTIAC MI
100 PM EDT SAT APR 19 2014

NOTE: "FAIR" INDICATES FEW OR NO CLOUDS BELOW 12,000 FEET WITH NO
SIGNIFICANT WEATHER AND/OR OBSTRUCTION TO VISIBILITY.

MIZ047>049-052>055-059>063-066>070-074>076-081>083-191800-
SOUTHEAST LOWER MICHIGAN

CITY           SKY/WX    TMP DP  RH WIND       PRES   REMARKS
ADRIAN         SUNNY     51  30  44 SE12      30.43F
ALMA           SUNNY     49  30  49 E8G16     30.45F
ANN ARBOR      SUNNY     52  25  35 SE8       30.43F
BAD AXE        SUNNY     44  31  59 E8        30.49F
CARO           SUNNY     51  30  43 NE6       30.45F
DETROIT CITY   SUNNY     51  26  37 NE12      30.45F
DETROIT        MOSUNNY   52  25  35 E10       30.45F
FLINT          SUNNY     52  30  43 E9        30.45F
GROSSE ILE     SUNNY     50  27  40 NE12      30.43F
HILLSDALE      SUNNY     53  28  38 E13       30.39F
HOWELL         SUNNY     51  22  32 NE8       30.43S

CITY           SKY/WX    TMP DP  RH WIND       PRES   REMARKS
JACKSON        SUNNY     54  29  38 VRB5      30.41F
LAMBERTVILLE   SUNNY     48  30  49 E13G22    30.44F
LANSING        SUNNY     50  26  39 E9        30.43F
LAPEER         FAIR      48  30  49 E9        30.46S
MASON          SUNNY     51  29  42 E9        30.42F
MONROE         SUNNY     52  34  50 E10G18    30.42F
MT. CLEMENS    SUNNY     49  30  47 E7        30.43F
PONTIAC        MOSUNNY   50  26  39 NE14      30.43F
PORT HOPE        N/A     38  32  79 NE7       30.49F WCI  33
PORT HURON     SUNNY     46  30  53 NE13      30.46F
TRI CITIES     MOSUNNY   49  34  56 E14       30.46F
TROY           SUNNY     49  27  42 NE3       30.45F
SAGINAW HB     SUNNY     50  32  50 E10       30.46F
YPSILANTI      SUNNY     56  24  29 E10G17    30.44F
$$
MIZ043>046-050>051-056>058-064>065-071>073-077>080-191800-
SOUTHWEST LOWER MICHIGAN

CITY           SKY/WX    TMP DP  RH WIND       PRES   REMARKS
BATTLE CREEK   SUNNY     53  29  39 E8        30.40F
BENTON HARBOR  SUNNY     57  36  45 E13       30.37F
BIG RAPIDS     MOSUNNY   49  27  42 SE14G21   30.40F
COLDWATER      SUNNY     54  30  40 E7        30.39F
FREMONT        FAIR      51  24  34 SE12G18   30.40S
HOLLAND        SUNNY     55  33  43 E13       30.39F
GRAND RAPIDS   MOSUNNY   52  31  44 E17G23    30.41F
IONIA          FAIR      49  29  45 E10       30.42F
KALAMAZOO      SUNNY     55  32  41 E7        30.40F
LUDINGTON      PTSUNNY   52  25  35 SE7       30.39F
MARSHALL       SUNNY     53  29  40 E6        30.40S
MOUNT PLEASANT SUNNY     49  30  48 SE12      30.44F
MUSKEGON       PTSUNNY   54  28  36 E12       30.39F
SOUTH HAVEN    SUNNY     56  33  41 E9        30.37F
$$
MIZ016>042-191800-
NORTHERN LOWER MICHIGAN

CITY           SKY/WX    TMP DP  RH WIND       PRES   REMARKS
ALPENA         SUNNY     42  28  57 SE9       30.51S
BEAVER ISLAND  MOSUNNY   43  27  53 E12       30.43F
BELLAIRE       MOSUNNY   51  24  34 SE10G17   30.41F
CADILLAC       SUNNY     50  28  42 SE9G20    30.38F
CHARLEVOIX     MOSUNNY   48  28  46 E14       30.45F
FRANKFORT      SUNNY     52  26  37 S9G17     30.38F
GAYLORD        MOSUNNY   46  26  45 E8G17     30.42F
GRAYLING       SUNNY     51  24  35 E9G20     30.43F
HARBOR SPRINGS MOSUNNY   48  28  46 E13       30.43F
HOUGHTON LAKE  SUNNY     49  26  41 SE12G20   30.43F
MANISTEE       MOSUNNY   52  23  32 S10       30.39F
OSCODA         SUNNY     41  30  65 E10       30.50F
PELLSTON       MOSUNNY   47  28  47 E13G21    30.45F
ROGERS CITY    MOSUNNY   41  31  67 E12       30.50F
TRAVERSE CITY  MOSUNNY   52  23  32 VRB7G17   30.38F
$$
MIZ007>008-015-191800-
EASTERN UPPER MICHIGAN

CITY           SKY/WX    TMP DP  RH WIND       PRES   REMARKS
KINROSS        PTSUNNY   39  28  65 SE14      30.47F WCI  31
MACKINAC ISLAN MOSUNNY   35  30  81 E9G21     30.47F WCI  28
NEWBERRY       MOSUNNY   40  26  56 SE13      30.43F WCI  33
S. S. MARIE    PTSUNNY   40  24  53 SE12      30.48S WCI  33
MUNISING         N/A     43  25  49 S10G21    30.40S
$$
MIZ004>006-011>014-085-191800-
CENTRAL UPPER MICHIGAN

CITY           SKY/WX    TMP DP  RH WIND       PRES   REMARKS
MANISTIQUE     PTSUNNY   38  31  76 E9G16     30.45R WCI  31
ESCANABA       MOSUNNY   36  30  80 SE12      30.41F WCI  27
MENOMINEE      SUNNY     41  28  60 S10       30.39S
SAWYER-GWINN   SUNNY     39  28  65 S16       30.36F WCI  30
$$
MIZ001>003-009>011-084-191800-
WESTERN UPPER MICHIGAN

CITY           SKY/WX    TMP DP  RH WIND       PRES   REMARKS
IRON MOUNTAIN  MOSUNNY   43  26  51 SE15G22   30.33F
HOUGHTON       CLOUDY    35  26  69 E13       30.27F WCI  26
COPPER HARBOR    N/A     37  29  72 S13G24    30.33F WCI  29
IRONWOOD       CLOUDY    45  23  42 SE18G26   30.07F
$$

ABBREVIATIONS USED IN REMARKS
   TC - TEMPERATURE IN CELSIUS
  WCI - WIND CHILL INDEX
   HX - HEAT INDEX
  VSB - VISIBILITY




USA.gov is the U.S. government's official web portal to all federal, state and local government web resources and services.